Weather History for Erwin, NC

Change the Weather History Date:

Saturday, June 29, 2013

  Actual Average Record
Temperature  
Mean Temperature 78 °F -  
Max Temperature 87 °F 89 °F 104 °F (2012)
Min Temperature 69 °F 65 °F 52 °F (1970)
Cooling Degree Days 13    
Growing Degree Days 28 (Base 50)    
Moisture  
Dew Point 71 °F    
Average Humidity 83    
Maximum Humidity 100    
Minimum Humidity 54    
Precipitation  
Precipitation 0.10 in - - ()
Sea Level Pressure  
Sea Level Pressure 29.69 in    
Wind  
Wind Speed 4 mph (South)    
Max Wind Speed 12 mph    
Max Gust Speed 21 mph    
Visibility 10 miles    
Events Rain    
Averages and records for this station are not official NWS values.
T = Trace of Precipitation, MM = Missing Value Source: NWS Daily Summary

Daily Weather History Graph

Daily Weather History Graph

Search for Another Location

Airport:

Trip Planner

Search our weather history database for the weather conditions in past years. The results will help you decide how hot, cold, wet, or windy it might be!

Date:

Astronomy

Jun. 29, 2013 Rise Set
Actual Time 6:02 AM EDT 8:33 PM EDT
Civil Twilight 5:33 AM EDT 9:03 PM EDT
Nautical Twilight 4:56 AM EDT 9:40 PM EDT
Astronomical Twilight 4:15 AM EDT 10:21 PM EDT
Moon 12:16 AM EDT (6/29) 12:56 PM EDT (6/29)
Length of Visible Light 15h 30m
Length of Day
14h 31m
Waning Gibbous, 56% of the Moon is Illuminated
Jun 29
Waning Gibbous
Jun 30
Last Quarter
Jul 8
New
Jul 15
First Quarter
Jul 22
Full

Hourly Weather History & Observations

Time (EDT) Temp. Heat Index Dew Point Humidity Pressure Visibility Wind Dir Wind Speed Gust Speed Precip Events Conditions
12:15 AM 73.2 °F - 72.0 °F 96% 29.65 in 10.0 mi Calm Calm - N/A Rain Light Rain
12:35 AM 72.7 °F - 71.8 °F 97% 29.70 in 5.0 mi NW 10.4 mph 20.7 mph 0.07 in Rain Heavy Rain
12:55 AM 70.3 °F - 70.0 °F 99% 29.67 in - Calm Calm - 0.06 in   Unknown
1:15 AM 70.7 °F - 70.2 °F 98% 29.67 in 10.0 mi Calm Calm - 0.03 in Rain Light Rain
1:35 AM 70.7 °F - 70.2 °F 98% 29.66 in 10.0 mi Calm Calm - 0.03 in   Scattered Clouds
1:55 AM 70.7 °F - 70.2 °F 98% 29.65 in 10.0 mi Calm Calm - 0.03 in   Scattered Clouds
2:15 AM 70.3 °F - 70.0 °F 99% 29.65 in 10.0 mi Calm Calm - N/A   Clear
2:35 AM 70.0 °F - 69.8 °F 99% 29.64 in 10.0 mi Calm Calm - N/A   Clear
2:55 AM 69.8 °F - 69.8 °F 100% 29.63 in 10.0 mi Calm Calm - N/A   Scattered Clouds
3:15 AM 70.2 °F - 70.2 °F 100% 29.64 in 10.0 mi South 3.5 mph - N/A   Mostly Cloudy
3:35 AM 70.7 °F - 70.7 °F 100% 29.63 in 10.0 mi South 3.5 mph - N/A   Overcast
3:55 AM 70.7 °F - 70.7 °F 100% 29.63 in 10.0 mi Calm Calm - 0.01 in   Overcast
4:15 AM 70.3 °F - 70.3 °F 100% 29.63 in 10.0 mi South 3.5 mph - N/A   Mostly Cloudy
4:35 AM 70.7 °F - 70.7 °F 100% 29.64 in 10.0 mi South 5.8 mph - N/A   Mostly Cloudy
4:55 AM 70.7 °F - 70.7 °F 100% 29.65 in 10.0 mi South 5.8 mph - N/A   Overcast
5:15 AM 70.7 °F - 70.7 °F 100% 29.65 in 10.0 mi South 4.6 mph - N/A   Overcast
5:35 AM 70.9 °F - 70.9 °F 100% 29.66 in 10.0 mi Calm Calm - N/A   Overcast
5:55 AM 70.9 °F - 70.9 °F 100% 29.66 in 10.0 mi South 3.5 mph - N/A   Mostly Cloudy
6:15 AM 70.9 °F - 70.9 °F 100% 29.66 in 10.0 mi South 4.6 mph - N/A   Overcast
6:35 AM 71.1 °F - 71.1 °F 100% 29.67 in 10.0 mi Calm Calm - N/A   Overcast
6:55 AM 71.6 °F - 71.2 °F 99% 29.67 in 10.0 mi Calm Calm - N/A   Overcast
7:15 AM 71.6 °F - 71.6 °F 100% 29.68 in 10.0 mi Calm Calm - N/A   Overcast
7:35 AM 72.0 °F - 71.6 °F 99% 29.68 in 10.0 mi Calm Calm - N/A   Overcast
7:55 AM 72.1 °F - 71.6 °F 98% 29.68 in 10.0 mi Calm Calm - N/A   Overcast
8:15 AM 72.9 °F - 72.1 °F 98% 29.69 in 10.0 mi Calm Calm - N/A   Overcast
8:35 AM 74.1 °F - 72.9 °F 96% 29.69 in 10.0 mi South 4.6 mph - N/A   Overcast
8:55 AM 74.8 °F - 73.4 °F 95% 29.69 in 10.0 mi South 4.6 mph - N/A Rain Light Rain
9:15 AM 74.8 °F - 73.8 °F 96% 29.69 in 10.0 mi WSW 3.5 mph - N/A   Overcast
9:35 AM 75.7 °F - 73.9 °F 94% 29.69 in 10.0 mi SW 4.6 mph - N/A   Overcast
9:55 AM 76.3 °F - 73.8 °F 92% 29.69 in 10.0 mi SW 8.1 mph - N/A   Overcast
10:15 AM 76.1 °F - 73.9 °F 93% 29.70 in 10.0 mi SSW 5.8 mph - N/A   Overcast
10:35 AM 76.8 °F - 73.6 °F 90% 29.70 in 10.0 mi SSW 5.8 mph - N/A   Overcast
10:55 AM 77.4 °F - 72.9 °F 86% 29.69 in 10.0 mi SW 6.9 mph - N/A   Overcast
11:15 AM 78.8 °F - 72.0 °F 79% 29.69 in 10.0 mi SSW 8.1 mph - N/A   Overcast
11:35 AM 79.2 °F - 70.9 °F 76% 29.69 in 10.0 mi SW 4.6 mph - N/A   Overcast
11:55 AM 79.5 °F - 70.7 °F 74% 29.69 in 10.0 mi WSW 3.5 mph - N/A   Mostly Cloudy
12:15 PM 80.1 °F 83.3 °F 70.3 °F 72% 29.70 in 10.0 mi SSW 4.6 mph - N/A   Mostly Cloudy
12:35 PM 81.3 °F 85.2 °F 70.7 °F 70% 29.69 in 10.0 mi West 3.5 mph - N/A   Scattered Clouds
12:55 PM 81.5 °F 85.3 °F 70.3 °F 69% 29.70 in 10.0 mi SSW 4.6 mph - N/A   Mostly Cloudy
1:15 PM 82.6 °F 86.1 °F 69.3 °F 64% 29.69 in 10.0 mi SSW 4.6 mph - N/A   Mostly Cloudy
1:35 PM 83.5 °F 87.7 °F 70.3 °F 64% 29.69 in 10.0 mi South 4.6 mph - N/A   Mostly Cloudy
1:55 PM 83.7 °F 87.7 °F 70.0 °F 63% 29.69 in 10.0 mi South 5.8 mph - N/A   Mostly Cloudy
2:15 PM 83.5 °F 88.0 °F 70.5 °F 65% 29.69 in 10.0 mi SSE 6.9 mph - N/A   Mostly Cloudy
2:35 PM 84.4 °F 89.0 °F 70.5 °F 63% 29.68 in 10.0 mi SSW 6.9 mph - N/A   Mostly Cloudy
2:55 PM 84.9 °F 90.1 °F 70.9 °F 63% 29.68 in 10.0 mi SSW 8.1 mph - N/A   Scattered Clouds
3:15 PM 85.3 °F 90.4 °F 70.7 °F 62% 29.68 in 10.0 mi South 8.1 mph - N/A   Mostly Cloudy
3:35 PM 84.6 °F 89.1 °F 70.3 °F 62% 29.68 in 10.0 mi SW 8.1 mph - N/A   Mostly Cloudy
3:55 PM 85.8 °F 90.8 °F 70.3 °F 60% 29.68 in 10.0 mi South 10.4 mph 16.1 mph N/A   Mostly Cloudy
4:15 PM 86.5 °F 90.7 °F 69.3 °F 56% 29.68 in 10.0 mi South 9.2 mph - N/A   Scattered Clouds
4:35 PM 86.7 °F 91.4 °F 69.6 °F 57% 29.68 in 10.0 mi SSW 11.5 mph - N/A   Scattered Clouds
4:55 PM 87.1 °F 90.9 °F 68.5 °F 54% 29.68 in 10.0 mi SSW 9.2 mph - N/A   Scattered Clouds
5:15 PM 86.5 °F 90.7 °F 69.3 °F 56% 29.68 in 10.0 mi South 10.4 mph - N/A   Scattered Clouds
5:35 PM 85.8 °F 90.4 °F 69.8 °F 59% 29.69 in 10.0 mi South 11.5 mph - N/A   Mostly Cloudy
5:55 PM 84.4 °F 88.7 °F 70.0 °F 62% 29.68 in 10.0 mi South 9.2 mph - N/A   Scattered Clouds
6:15 PM 84.2 °F 89.3 °F 71.2 °F 65% 29.68 in 10.0 mi South 9.2 mph - N/A   Clear
6:35 PM 84.2 °F 89.6 °F 71.8 °F 66% 29.69 in 10.0 mi South 10.4 mph - N/A   Clear
6:55 PM 83.3 °F 88.4 °F 71.6 °F 68% 29.69 in 10.0 mi South 8.1 mph - N/A   Clear
7:15 PM 83.3 °F 87.9 °F 71.1 °F 66% 29.70 in 10.0 mi South 9.2 mph - N/A   Scattered Clouds
7:35 PM 82.4 °F 86.7 °F 70.9 °F 68% 29.70 in 10.0 mi South 6.9 mph - N/A   Scattered Clouds
7:55 PM 81.7 °F 86.0 °F 71.4 °F 71% 29.70 in 10.0 mi South 4.6 mph - N/A   Clear
8:15 PM 80.2 °F 84.0 °F 71.6 °F 75% 29.71 in 10.0 mi SSE 5.8 mph - N/A   Clear
8:35 PM 79.5 °F - 72.0 °F 78% 29.71 in 10.0 mi South 5.8 mph - N/A   Clear
8:55 PM 78.8 °F - 71.6 °F 78% 29.72 in 10.0 mi SSE 8.1 mph - N/A   Clear
9:15 PM 78.1 °F - 71.2 °F 79% 29.72 in 10.0 mi South 5.8 mph - N/A   Clear
9:35 PM 77.4 °F - 71.1 °F 81% 29.73 in 10.0 mi SSE 9.2 mph - N/A   Clear
9:55 PM 77.0 °F - 71.1 °F 82% 29.74 in 10.0 mi South 8.1 mph - N/A   Clear
10:15 PM 77.0 °F - 71.6 °F 83% 29.74 in 10.0 mi South 6.9 mph - N/A   Clear
10:35 PM 76.5 °F - 72.5 °F 87% 29.75 in 10.0 mi South 5.8 mph - N/A   Clear
10:55 PM 76.1 °F - 73.6 °F 92% 29.75 in 10.0 mi South 5.8 mph - N/A   Clear
11:15 PM 76.1 °F - 73.6 °F 92% 29.75 in 10.0 mi SSE 8.1 mph - N/A   Scattered Clouds
11:35 PM 76.1 °F - 73.6 °F 92% 29.75 in 10.0 mi SSE 5.8 mph - N/A   Scattered Clouds
11:55 PM 76.1 °F - 73.8 °F 92% 29.76 in 10.0 mi South 5.8 mph - N/A   Scattered Clouds